Flag for Switzerland Weather past 2 weeks in Affoltern am Albis, Zurich, Switzerland

Now
46 °F

Cool.


Feels Like: 44 °F
Forecast: 28 / 48 °F
Wind: 3 mph from Northeast

Location: Zurich Town / Ville.

Current Time: Oct 23, 2014 at 9:03:30 PM

Latest Report: Oct 23, 2014 at 8:00 PM


Visibility: N/A

Pressure: 30.28 "Hg

Humidity: 75%

Dew point: 38 °F

Location of Affoltern am AlbisLocation

Historic Weather in Affoltern am Albis — Graph

°F

Affoltern am Albis temperature yesterday

Maximum temperature yesterday: 47 °F (at 12:00 AM)
Minimum temperature yesterday: 39 °F (at 6:00 AM)
Average temperature yesterday: 41 °F

Past Weeks' High & Low Weather Summary

 TemperatureHumidityPressure
High72 °F (Oct 9, 5:00 PM)100% (Oct 18, 6:00 AM)30.34 "Hg (Oct 18, 6:00 AM)
Low39 °F (Oct 22, 6:00 AM)46% (Oct 9, 3:00 PM)29.74 "Hg (Oct 21, 7:00 PM)
Average56 °F85%29.99 "Hg
* Reported Oct 8 7:00 PM — Oct 23 7:00 PM, Affoltern am Albis, Weather by CustomWeather, © 2014

Note: Actual official high and low records may vary slightly from our data, if they occured in-between our weather recording intervals... More about our weather records

Advertising

Affoltern am Albis weather history for previous 24 hours

 ConditionsComfort  
Time TempWeatherWind HumidityBarometerVisibility
7:00 PM
Oct 23
46 °FCool.2 mph76%30.28 "HgN/A
6:00 PM46 °FCool.2 mph75%30.28 "HgN/A
5:00 PM47 °FCool.3 mph74%30.28 "HgN/A
4:00 PM48 °FCool.3 mph68%30.27 "HgN/A
3:00 PM48 °FCool.2 mph73%30.29 "HgN/A
2:00 PM46 °FOvercast.3 mph79%30.32 "HgN/A
1:00 PM46 °FCool.5 mph77%30.33 "HgN/A
12:00 PM45 °FQuite cool.6 mph77%30.34 "HgN/A
11:00 AM44 °FQuite cool.6 mph85%30.34 "HgN/A
10:00 AM43 °FQuite cool.5 mph86%30.33 "HgN/A
9:00 AM42 °FQuite cool.7 mph89%30.33 "HgN/A
8:00 AM42 °FQuite cool.6 mph90%30.32 "HgN/A
7:00 AM42 °FQuite cool.3 mph90%30.31 "HgN/A
6:00 AM41 °FQuite cool.3 mph93%30.31 "HgN/A
5:00 AM41 °FQuite cool.6 mph94%30.30 "HgN/A
4:00 AM41 °FQuite cool.6 mph95%30.30 "HgN/A
3:00 AM41 °FQuite cool.8 mph94%30.29 "HgN/A
2:00 AM41 °FQuite cool.8 mph95%30.28 "HgN/A
1:00 AM41 °FQuite cool.9 mph96%30.28 "HgN/A
12:00 AM41 °FQuite cool.8 mph91%30.27 "HgN/A
11:00 PM
Oct 22
41 °FQuite cool.9 mph90%30.27 "HgN/A
10:00 PM42 °FQuite cool.9 mph87%30.25 "HgN/A
9:00 PM42 °FQuite cool.10 mph83%30.23 "HgN/A
Weather by CustomWeather, © 2014

See weather overviewHow to use our weather pages